Weather in Kalkanovo

Russia / Republic of Bashkortostan     54°24′36″N   59°18′31″E
temp.,
°C
wind,
m/s
gust,
m/s
humid.,
%
clouds,
%
prec.,
mm/h
press.,
hPa
HPBL,
m
3 march, wed
wed323:00−13wsw2490100 0.0 100688
02:00−12wsw3589100 0.0 1004188
05:00−11wsw3888100 0.0 1003227
08:00−11wsw3689100 0.0 1001139
11:00−5wsw488399 0.0 1002467
14:00−2wsw3680100 0.0 1001963
17:00−2sw3584100 0.1 1001916
20:00−7sw2394100 0.1 100158
4 march, thu
thu423:00−8wnw2293100 0.1 100121
02:00−11wnw229215 0.0 100021
05:00−13w22928 0.0 100021
08:00−14w33910 0.0 100147
11:00−9wnw512790 0.0 1002817
14:00−7w5107630 0.0 1002905
17:00−6wsw5117735 0.0 10021072
20:00−11wsw49881 0.0 1002255
5 march, fri
fri523:00−12wsw4118833 0.0 1002342
02:00−8wsw5168799 0.0 999827
05:00−6w4119479 0.4 1000571
08:00−7w4148860 0.2 1002537
11:00−3wsw4118564 0.2 10031120
14:00−1wsw61183100 0.2 10021296
17:00−2wsw51091100 0.5 10021014
20:00−4sw4109399 0.2 1001411
6 march, sat
sat623:00−2sw6159393 0.9 9991045
02:00−5w9187853 0.3 1001940
05:00−9w4138628 0.4 1007524
08:00−14w229127 0.0 101025
11:00−9w267462 0.0 1011686
14:00−6wsw246993 0.0 1011976
17:00−6ene017396 0.0 1009735
20:00−9ne2596100 0.9 1007212
7 march, sun
sun723:00−10ne2596100 2.3 1007242
02:00−11nne2397100 1.2 1007132
05:00−13nnw1196100 1.6 100921
08:00−17nw229476 0.1 101121
11:00−11w237738 0.1 1012421
14:00−8w247038 0.0 10121358
17:00−9w467669 0.1 10121149
20:00−16w228772 0.0 101420